Date,TemperatureHighF,TemperatureAvgF,TemperatureLowF,DewpointHighF,DewpointAvgF,DewpointLowF,HumidityHigh,HumidityAvg,HumidityLow,PressureMaxIn,PressureMinIn,WindSpeedMaxMPH,WindSpeedAvgMPH,GustSpeedMaxMPH,PrecipitationSumIn
2013-3-1,78.4,60.3,48.6,58.1,48.6,44.4,92,68,40,30.15,29.94,6,1,6,0.00
2013-3-2,72.5,60.2,51.6,56.5,49.1,45.0,84,68,50,29.97,29.79,8,1,8,0.00
2013-3-3,71.6,57.6,48.9,52.7,46.5,41.2,84,68,42,29.88,29.76,14,3,14,0.00
2013-3-4,68.5,53.0,46.4,51.2,43.0,38.4,85,70,47,29.88,29.76,13,2,13,0.00
2013-3-5,66.0,52.1,41.5,45.6,40.6,36.2,84,66,44,29.76,29.56,22,4,22,0.16
2013-3-6,59.9,52.1,43.5,47.9,41.4,36.5,87,68,47,29.76,29.56,23,4,23,0.25
2013-3-7,62.6,50.4,42.4,45.4,41.4,36.8,86,72,49,29.74,29.59,10,2,10,0.17
2013-3-8,65.8,52.2,46.2,49.9,42.7,0.0,88,71,46,29.79,29.53,20,5,20,0.04
2013-3-9,74.3,57.3,46.8,47.7,40.5,34.8,81,56,32,30.00,29.76,13,4,15,0.00
2013-3-10,76.8,58.5,43.7,49.1,39.7,35.6,80,53,25,30.06,29.97,7,1,7,0.00
2013-3-11,80.1,59.3,44.8,51.4,42.8,37.3,83,58,31,29.97,29.82,8,1,8,0.00
2013-3-12,78.3,59.7,47.7,55.9,47.7,40.7,88,67,39,29.88,29.79,6,1,6,0.00
2013-3-13,81.7,63.2,47.8,57.5,49.7,43.2,89,65,35,29.88,29.79,8,1,8,0.00
2013-3-14,77.9,65.1,53.2,56.1,42.8,38.0,58,45,32,29.88,29.82,13,3,13,0.00
2013-3-15,75.2,58.8,47.3,52.2,44.8,38.6,77,61,39,29.85,29.76,10,2,12,0.00
2013-3-16,79.0,59.7,49.3,56.4,45.4,35.9,91,63,30,29.82,29.74,20,4,24,0.00
2013-3-17,76.3,59.7,49.8,47.1,40.7,34.5,70,51,32,29.88,29.76,12,3,12,0.00
2013-3-18,69.3,57.0,45.9,51.8,43.6,38.1,82,62,48,29.88,29.74,7,1,7,0.00
2013-3-19,74.3,57.6,47.8,52.2,43.5,32.8,79,61,37,29.85,29.74,13,2,13,0.04
2013-3-20,66.4,57.8,52.0,55.1,50.4,46.4,90,77,61,29.85,29.76,13,3,13,0.00
2013-3-21,72.3,57.2,46.4,50.2,42.6,36.6,82,60,36,29.85,29.71,12,3,12,0.00
2013-3-22,74.5,57.4,44.2,46.2,36.0,29.7,77,49,23,29.82,29.74,11,3,13,0.00
2013-3-23,75.0,58.2,44.4,43.5,35.7,31.8,68,46,24,29.85,29.74,8,2,9,0.00
2013-3-24,76.6,59.0,45.9,49.9,42.3,36.3,80,56,35,29.79,29.68,11,2,11,0.00
2013-3-25,70.0,55.0,46.0,49.0,42.1,37.8,79,63,44,29.74,29.65,13,2,15,0.00
2013-3-26,71.8,59.0,48.4,49.3,44.1,39.4,77,59,42,29.74,29.65,10,3,10,0.00
2013-3-27,63.5,59.0,57.0,51.4,50.6,49.7,79,74,64,29.76,29.71,10,2,10,0.00
2013-3-28,74.5,62.1,55.6,59.9,53.7,49.5,91,75,53,29.82,29.71,10,2,10,0.00
2013-3-29,80.1,64.2,50.9,57.1,51.4,47.2,92,66,40,29.82,29.74,8,2,8,0.00
2013-3-30,74.8,62.0,56.3,58.9,52.4,45.3,85,72,44,29.79,29.71,9,2,11,0.04
2013-3-31,68.9,60.8,54.0,57.4,51.1,47.1,91,72,49,29.79,29.71,14,4,15,0.09